Regional Weather Roundup
Issued by NWS Upton, NY

Current Version | Previous Version | Text Only | Print | Product List | Glossary Off
Versions: 1 2 3 4 5 6 7 8 9 10 11 12 13 14 15 16 17 18 19 20 21 22 23 24 25 26 27 28
000 ASUS41 KOKX 212209 RWROKX REGIONAL WEATHER ROUNDUP NATIONAL WEATHER SERVICE NEW YORK NY 600 PM EDT SAT OCT 21 2017 NOTE: "FAIR" INDICATES FEW OR NO CLOUDS BELOW 12,000 FEET WITH NO SIGNIFICANT WEATHER AND/OR OBSTRUCTIONS TO VISIBILITY. NYZ071-072-176-178-NJZ106-104-212300- NEW YORK CITY METRO AREA CITY SKY/WX TMP DP RH WIND PRES REMARKS Central Park CLOUDY 70 39 32 CALM 30.34R Bronx Bot Gard N/A 68 41 37 E2 30.32S LaGuardia APRT CLOUDY 71 37 28 S9 30.31R Kennedy INTL CLOUDY 65 49 56 S10 30.33R Breezy Point N/A 64 N/A N/A S9 N/A Newark/Liberty CLOUDY 73 43 33 S5 30.32R Teterboro CLOUDY 70 43 37 SW6 30.30R $$ NYZ177-179-078>081-212300- LONG ISLAND NEW YORK CITY SKY/WX TMP DP RH WIND PRES REMARKS Jones Beach N/A 64 N/A N/A SW5 N/A Matinecock PT N/A 68 N/A N/A S7 N/A Farmingdale CLOUDY 65 49 56 SW9 30.33R MacArthur/ISP CLOUDY 64 52 64 S5 30.32S Shirley CLOUDY 66 55 67 SW7 30.33R Mt Sinai Harb N/A N/A N/A N/A S9 N/A Westhampton CLOUDY 63 52 67 SW5 30.34R East Hampton FAIR 61 53 75 SW6 30.32R Montauk N/A 63 55 75 VRB3 30.33R $$ NYZ052-065-067-212300- HUDSON VALLEY CITY SKY/WX TMP DP RH WIND PRES REMARKS White Plains CLOUDY 68 44 42 S6 30.31R Larchmont Harb N/A 68 N/A N/A S12 N/A Croton On Huds N/A 72 N/A N/A MISG N/A Newburgh MOCLDY 72 46 40 SW6 30.31R Montgomery CLOUDY 65 51 60 SW5 30.30R Poughkeepsie PTCLDY 66 50 56 CALM 30.29R Albany MOCLDY 66 48 52 CALM 30.29R $$ NJZ001-105-106-008-010-013-015-019>022-104-212300- NEW JERSEY CITY SKY/WX TMP DP RH WIND PRES REMARKS Newark/Liberty CLOUDY 73 43 33 S5 30.32R Teterboro CLOUDY 70 43 37 SW6 30.30R Caldwell CLOUDY 71 45 39 CALM 30.32R Somerville CLOUDY 67 48 50 CALM 30.31R Linden FAIR 72 43 35 CALM 30.32R Perth Amboy N/A 68 N/A N/A E3 N/A Sussex CLOUDY 66 48 52 CALM 30.32R Andover N/A 63 48 58 CALM 30.33R Trenton CLOUDY 72 41 32 SW3 30.32R Millville CLOUDY 67 53 61 CALM 30.34R Atlantic City CLOUDY 68 53 58 S5 30.33S Wrightstown CLEAR 67 52 57 CALM 30.30R Toms River N/A 66 54 65 S5 30.34R Belmar CLOUDY 66 47 50 SE5 30.34R $$ PAZ047>061-062-071-212300- EASTERN PENNSYLVANIA CITY SKY/WX TMP DP RH WIND PRES REMARKS Philadelphia CLOUDY 72 47 40 SW7 30.33R Allentown PTCLDY 72 44 36 S5 30.33R Scranton CLOUDY 66 45 46 S3 30.33R $$ CTZ002-004>006-009-010-012-RIZ004-006-007-MAZ004-011-015-212300- SOUTHERN NEW ENGLAND IN CT CITY SKY/WX TMP DP RH WIND PRES REMARKS Bradley INTL CLOUDY 70 43 37 W3 30.29R Hartford CLOUDY 75 40 28 CALM 30.28R Danbury CLOUDY 67 47 48 CALM 30.32R Wtrbury/Oxford CLOUDY 66 47 50 S3 30.32R Norwalk Harbor NOT AVBL Bridgeport CLOUDY 68 52 56 SW12 30.30R Meriden CLOUDY 65 44 46 SE3 30.30R New Haven CLOUDY 66 55 67 SW5 30.31R Chester FAIR 66 50 55 SW7G13 30.31S Groton CLOUDY 63 54 72 SW8 30.31R Wilimantic CLOUDY 68 48 48 CALM 30.29R IN RI CITY SKY/WX TMP DP RH WIND PRES REMARKS Providence CLOUDY 64 48 56 SW5 30.30R Block Island CLOUDY 63 54 72 SW13 30.32R Westerly CLOUDY 65 52 62 SW6 30.32R IN MA CITY SKY/WX TMP DP RH WIND PRES REMARKS Boston CLOUDY 73 42 32 W10 30.27 Worcester CLOUDY 64 40 41 W6 30.30S Westfield CLOUDY 66 48 52 CALM 30.28R Provincetown CLEAR 61 51 70 SW10 30.29R Nantucket CLEAR 59 54 83 SW10 30.31S $$ ANZ330-335-338-340-345-350-353-355-212300- COASTAL MARINE OBSERVATIONS STATION/POSITION TIME SKY/WX TEMP WIND PRES VSBY WAVE AIR SEA DIR/SP/G HT/PER (UTC) (F) (DEG/KT/KT) (MB) (MI) (FT/S) NY HARB ENTRANCE 2050 66 65 200/ 8/ 10 1026.1 1/ 8 20 S FIRE ISLAND 2050 65 65 210/ 8/ 10 1026.8 2/ 9 GREAT SOUTH BAY 2130 64 63 220/ 4/ 8 N/A 15 E BARNEGAT LI NOT AVBL HUDSON CANYON 2050 66 67 220/ 4/ 4 1026.6 2/ 9 KINGS POINT 2130 68 66 210/ 12/ 13 1027.0 EXECUTION ROCKS 2130 70 180/ 12/ 14 N/A WESTERN LI SOUND 2049 71 190/ 12/ 14 N/A 1 CENTRAL LI SOUND NOT AVBL EASTERN LI SOUND NOT AVBL ROBBINS REEF 2130 68 170/ 13/ 14 1026.8 $$ >>>>>>>>>>>>>>>>>>>>>>>>>>>> KEY <<<<<<<<<<<<<<<<<<<<<<<<<<< > < > SKY/WX - Sky Condition/Present Weather < > TMP - Temperature in Fahrenheit < > DP - Dew Point in Fahrenheit < > RH - Relative Humidity in Percent < > WIND - Direction (from) and Speed in MPH < > PRES - Mean Sea Level Pressure (inches of Hg) < > WCI - Wind Chill Index < > VSB - VISIBILITY IN MILES < > HX - HEAT INDEX < > TC - TEMPERATURE IN CELSIUS < > VRB - VARIABLE WIND DIRECTION < > < >>>>>>>>>>>>>>>>>>>>>>>>>>>> KEY <<<<<<<<<<<<<<<<<<<<<<<<<<<

USA.gov is the U.S. government's official web portal to all federal, state and local government web resources and services.